Millville, NJ

9:54 PM EST on January 18, 2018 (GMT -0500)
Millville Municipal

Weather History for KMIV - November, 2011

Change the Weather History Date:

Friday, November 18, 2011

  Actual Average Record
Temperature  
Mean Temperature 36 °F -  
Max Temperature 45 °F 55 °F 70 °F (1987)
Min Temperature 26 °F 33 °F 21 °F (1997)
Degree Days  
Heating Degree Days 29    
Moisture  
Dew Point 22 °F    
Average Humidity 62    
Maximum Humidity 92    
Minimum Humidity 36    
Precipitation  
Precipitation 0.00 in - - ()
Sea Level Pressure  
Sea Level Pressure 30.38 in    
Wind  
Wind Speed 8 mph (WNW)    
Max Wind Speed 14 mph    
Max Gust Speed 21 mph    
Visibility 10 miles    
Events      
Averages and records for this station are not official NWS values.
T = Trace of Precipitation, MM = Missing Value Source: NWS Daily Summary

Daily Weather History Graph

Daily Weather History Graph

Search for Another Location

Airport or City:

Trip Planner

Search our weather history database for the weather conditions in past years. The results will help you decide how hot, cold, wet, or windy it might be!

Date:

Astronomy

Nov. 18, 2011 Rise Set
Actual Time 6:47 AM EST 4:43 PM EST
Civil Twilight 6:18 AM EST 5:12 PM EST
Nautical Twilight 5:45 AM EST 5:44 PM EST
Astronomical Twilight 5:13 AM EST 6:16 PM EST
Moon No Moon Rise 12:26 PM EST (11/18)
Length of Visible Light 10h 54m
Length of Day
9h 56m
Waning Gibbous, 49% of the Moon is Illuminated
Nov 18
Waning Gibbous
Nov 25
New
Dec 2
First Quarter
Dec 10
Full
Dec 17
Last Quarter

Hourly Weather History & Observations

Time (EST) Temp. Windchill Dew Point Humidity Pressure Visibility Wind Dir Wind Speed Gust Speed Precip Events Conditions
12:54 AM 37.9 °F 29.6 °F 24.1 °F 57% 30.16 in 10.0 mi WNW 13.8 mph 20.7 mph N/A   Clear
1:54 AM 37.0 °F 28.9 °F 24.1 °F 59% 30.19 in 10.0 mi WNW 12.7 mph - N/A   Clear
2:54 AM 36.0 °F 30.3 °F 24.1 °F 62% 30.24 in 10.0 mi WNW 6.9 mph - N/A   Clear
3:54 AM 34.0 °F 28.0 °F 23.0 °F 64% 30.26 in 10.0 mi WNW 6.9 mph - N/A   Clear
4:54 AM 33.1 °F 26.1 °F 21.0 °F 61% 30.29 in 10.0 mi West 8.1 mph - N/A   Clear
5:54 AM 30.9 °F 26.2 °F 21.0 °F 67% 30.33 in 10.0 mi West 4.6 mph - N/A   Clear
6:54 AM 30.0 °F 24.1 °F 21.0 °F 69% 30.37 in 10.0 mi West 5.8 mph - N/A   Clear
7:54 AM 35.1 °F 28.6 °F 21.0 °F 57% 30.40 in 10.0 mi West 8.1 mph - N/A   Clear
8:54 AM 37.9 °F 30.5 °F 21.0 °F 51% 30.42 in 10.0 mi WNW 11.5 mph 19.6 mph N/A   Clear
9:54 AM 41.0 °F 33.9 °F 21.0 °F 45% 30.43 in 10.0 mi West 12.7 mph 18.4 mph N/A   Clear
10:54 AM 42.1 °F 35.7 °F 19.9 °F 41% 30.43 in 10.0 mi NNW 11.5 mph - N/A   Clear
11:54 AM 43.0 °F 37.7 °F 19.9 °F 40% 30.42 in 10.0 mi NNW 9.2 mph 18.4 mph N/A   Clear
12:54 PM 44.1 °F 40.8 °F 19.0 °F 37% 30.40 in 10.0 mi WNW 5.8 mph - N/A   Clear
1:54 PM 45.0 °F 40.1 °F 19.9 °F 37% 30.40 in 10.0 mi NW 9.2 mph - N/A   Clear
2:54 PM 45.0 °F 42.6 °F 19.0 °F 36% 30.39 in 10.0 mi West 4.6 mph - N/A   Clear
3:54 PM 43.0 °F 38.8 °F 19.9 °F 40% 30.41 in 10.0 mi WSW 6.9 mph - N/A   Clear
4:54 PM 37.0 °F - 24.1 °F 59% 30.42 in 10.0 mi Calm Calm - N/A   Clear
5:54 PM 33.1 °F - 26.1 °F 75% 30.43 in 10.0 mi Calm Calm - N/A   Clear
6:54 PM 28.9 °F - 25.0 °F 85% 30.44 in 10.0 mi Calm Calm - N/A   Clear
7:54 PM 28.0 °F - 25.0 °F 88% 30.45 in 10.0 mi Calm Calm - N/A   Clear
8:54 PM 27.0 °F - 24.1 °F 89% 30.46 in 10.0 mi Calm Calm - N/A   Clear
9:54 PM 27.0 °F - 24.1 °F 89% 30.46 in 10.0 mi Calm Calm - N/A   Clear
10:54 PM 27.0 °F - 24.1 °F 89% 30.45 in 10.0 mi Calm Calm - N/A   Clear
11:54 PM 26.1 °F - 24.1 °F 92% 30.45 in 10.0 mi Calm Calm - N/A   Clear